Location: Marengo
(51.4813°N, 109.7825°W)
Time: 00:52:09
(UTC+00:00)

BlueWalker 3 - Pass Details

Date: 06 December 2022
Orbit: 499 x 517 km, 53.2° (Epoch: 26 January)

Event Time Altitude Azimuth Distance (km) Brightness Sun altitude
Rises 00:28:30 0° 279° (W) 2,636 6.7 -11.3°
Reaches altitude 10° 00:30:43 10° 282° (WNW) 1,744 5.6 -11.6°
Maximum altitude 00:34:39 70° 7° (N) 550 2.0 -12.2°
Enters shadow 00:37:24 19° 88° (E) 1,277 3.4 -12.6°
